Time,TemperatureF,DewpointF,PressureIn,WindDirection,WindDirectionDegrees,WindSpeedMPH,WindSpeedGustMPH,Humidity,HourlyPrecipIn,Conditions,Clouds,dailyrainin,SolarRadiationWatts/m^2,SoftwareType,DateUTC
2013-02-13 00:02:00,39.0,29.0,-100.00,North,351,0.0,4.0,68,0.00,,,0.00,0.000000,,2013-02-13 06:02:00,
2013-02-13 00:11:00,39.0,29.0,-100.00,North,351,0.0,4.0,68,0.00,,,0.00,0.000000,,2013-02-13 06:11:00,
2013-02-13 00:32:00,39.0,30.0,-100.00,South,179,1.0,5.0,69,0.00,,,0.00,0.000000,,2013-02-13 06:32:00,
2013-02-13 00:42:00,39.0,30.0,-100.00,South,179,1.0,5.0,69,0.00,,,0.00,0.000000,,2013-02-13 06:42:00,
2013-02-13 00:52:00,39.0,30.0,-100.00,South,179,1.0,5.0,69,0.00,,,0.00,0.000000,,2013-02-13 06:52:00,
2013-02-13 01:02:00,39.0,30.0,-100.00,South,179,1.0,5.0,69,0.00,,,0.00,0.000000,,2013-02-13 07:02:00,
2013-02-13 01:11:00,39.0,30.0,-100.00,South,179,1.0,5.0,69,0.00,,,0.00,0.000000,,2013-02-13 07:11:00,
2013-02-13 01:42:00,38.0,31.0,-100.00,South,180,1.0,3.0,77,0.00,,,0.00,0.000000,,2013-02-13 07:42:00,
2013-02-13 01:52:00,38.0,31.0,-100.00,South,180,1.0,3.0,77,0.00,,,0.00,0.000000,,2013-02-13 07:52:00,
2013-02-13 02:01:00,38.0,31.0,-100.00,South,180,1.0,3.0,77,0.00,,,0.00,0.000000,,2013-02-13 08:01:00,
2013-02-13 02:11:00,38.0,31.0,-100.00,South,180,1.0,3.0,77,0.00,,,0.00,0.000000,,2013-02-13 08:11:00,
2013-02-13 02:43:00,40.0,28.0,-100.00,West,269,1.0,5.0,63,0.00,,,0.00,0.000000,,2013-02-13 08:43:00,
2013-02-13 02:52:00,40.0,28.0,-100.00,West,269,1.0,5.0,63,0.00,,,0.00,0.000000,,2013-02-13 08:52:00,
2013-02-13 03:01:00,40.0,28.0,-100.00,West,269,1.0,5.0,63,0.00,,,0.00,0.000000,,2013-02-13 09:01:00,
2013-02-13 03:11:00,40.0,28.0,-100.00,West,269,1.0,5.0,63,0.00,,,0.00,0.000000,,2013-02-13 09:11:00,
2013-02-13 03:42:00,39.0,29.0,-100.00,NNW,335,1.0,7.0,68,0.00,,,0.00,0.000000,,2013-02-13 09:42:00,
2013-02-13 03:52:00,39.0,29.0,-100.00,NNW,335,1.0,7.0,68,0.00,,,0.00,0.000000,,2013-02-13 09:52:00,
2013-02-13 04:01:00,39.0,29.0,-100.00,NNW,335,1.0,7.0,68,0.00,,,0.00,0.000000,,2013-02-13 10:01:00,
2013-02-13 04:11:00,39.0,29.0,-100.00,NNW,335,1.0,7.0,68,0.00,,,0.00,0.000000,,2013-02-13 10:11:00,
2013-02-13 04:42:00,38.0,29.0,-100.00,WSW,247,1.0,5.0,69,0.00,,,0.00,0.000000,,2013-02-13 10:42:00,
2013-02-13 04:52:00,38.0,29.0,-100.00,WSW,247,1.0,5.0,69,0.00,,,0.00,0.000000,,2013-02-13 10:52:00,
2013-02-13 05:01:00,38.0,29.0,-100.00,WSW,247,1.0,5.0,69,0.00,,,0.00,0.000000,,2013-02-13 11:01:00,
2013-02-13 05:11:00,38.0,29.0,-100.00,WSW,247,1.0,5.0,69,0.00,,,0.00,0.000000,,2013-02-13 11:11:00,
2013-02-13 05:32:00,38.0,28.0,-100.00,WSW,245,1.0,4.0,68,0.00,,,0.00,0.000000,,2013-02-13 11:32:00,
2013-02-13 05:42:00,38.0,28.0,-100.00,WSW,245,1.0,4.0,68,0.00,,,0.00,0.000000,,2013-02-13 11:42:00,
2013-02-13 05:52:00,38.0,28.0,-100.00,WSW,245,1.0,4.0,68,0.00,,,0.00,0.000000,,2013-02-13 11:52:00,
2013-02-13 06:02:00,38.0,28.0,-100.00,WSW,245,1.0,4.0,68,0.00,,,0.00,0.000000,,2013-02-13 12:02:00,
2013-02-13 06:11:00,38.0,28.0,-100.00,WSW,245,1.0,4.0,68,0.00,,,0.00,0.000000,,2013-02-13 12:11:00,
2013-02-13 06:42:00,38.0,28.0,-100.00,West,272,2.0,5.0,67,0.00,,,0.00,0.000000,,2013-02-13 12:42:00,
2013-02-13 06:52:00,38.0,28.0,-100.00,West,272,2.0,5.0,67,0.00,,,0.00,0.000000,,2013-02-13 12:52:00,
2013-02-13 07:02:00,38.0,28.0,-100.00,West,272,2.0,5.0,67,0.00,,,0.00,0.000000,,2013-02-13 13:02:00,
2013-02-13 07:11:00,38.0,28.0,-100.00,West,272,2.0,5.0,67,0.00,,,0.00,0.000000,,2013-02-13 13:11:00,
2013-02-13 07:42:00,37.0,28.0,-100.00,SW,235,2.0,7.0,71,0.00,,,0.00,2.000000,,2013-02-13 13:42:00,
2013-02-13 07:52:00,37.0,28.0,-100.00,SW,235,2.0,7.0,71,0.00,,,0.00,2.000000,,2013-02-13 13:52:00,
2013-02-13 08:01:00,37.0,28.0,-100.00,SW,235,2.0,7.0,71,0.00,,,0.00,2.000000,,2013-02-13 14:01:00,
2013-02-13 08:11:00,37.0,28.0,-100.00,SW,235,2.0,7.0,71,0.00,,,0.00,2.000000,,2013-02-13 14:11:00,
2013-02-13 08:42:00,38.0,29.0,-100.00,WSW,248,3.0,8.0,70,0.00,,,0.00,43.000000,,2013-02-13 14:42:00,
2013-02-13 08:52:00,38.0,29.0,-100.00,WSW,248,3.0,8.0,70,0.00,,,0.00,43.000000,,2013-02-13 14:52:00,
2013-02-13 09:01:00,38.0,29.0,-100.00,WSW,248,3.0,8.0,70,0.00,,,0.00,43.000000,,2013-02-13 15:01:00,
2013-02-13 09:11:00,38.0,29.0,-100.00,WSW,248,3.0,8.0,70,0.00,,,0.00,43.000000,,2013-02-13 15:11:00,
2013-02-13 09:42:00,41.0,29.0,-100.00,WSW,249,4.0,11.0,61,0.00,,,0.00,229.000000,,2013-02-13 15:42:00,
2013-02-13 09:52:00,41.0,29.0,-100.00,WSW,249,4.0,11.0,61,0.00,,,0.00,229.000000,,2013-02-13 15:52:00,
2013-02-13 10:01:00,41.0,29.0,-100.00,WSW,249,4.0,11.0,61,0.00,,,0.00,229.000000,,2013-02-13 16:01:00,
2013-02-13 10:11:00,41.0,29.0,-100.00,WSW,249,4.0,11.0,61,0.00,,,0.00,229.000000,,2013-02-13 16:11:00,
2013-02-13 10:42:00,47.0,29.0,-100.00,WSW,243,3.0,10.0,49,0.00,,,0.00,466.000000,,2013-02-13 16:42:00,
2013-02-13 10:52:00,47.0,29.0,-100.00,WSW,243,3.0,10.0,49,0.00,,,0.00,466.000000,,2013-02-13 16:52:00,
2013-02-13 11:01:00,47.0,29.0,-100.00,WSW,243,3.0,10.0,49,0.00,,,0.00,466.000000,,2013-02-13 17:01:00,
2013-02-13 11:11:00,47.0,29.0,-100.00,WSW,243,3.0,10.0,49,0.00,,,0.00,466.000000,,2013-02-13 17:11:00,
2013-02-13 11:42:00,50.0,28.0,-100.00,SSW,213,3.0,11.0,43,0.00,,,0.00,586.000000,,2013-02-13 17:42:00,
2013-02-13 11:52:00,50.0,28.0,-100.00,SSW,213,3.0,11.0,43,0.00,,,0.00,586.000000,,2013-02-13 17:52:00,
2013-02-13 12:02:00,50.0,28.0,-100.00,SSW,213,3.0,11.0,43,0.00,,,0.00,586.000000,,2013-02-13 18:02:00,
2013-02-13 12:11:00,50.0,28.0,-100.00,SSW,213,3.0,11.0,43,0.00,,,0.00,586.000000,,2013-02-13 18:11:00,
2013-02-13 12:42:00,52.0,27.0,-100.00,WSW,242,5.0,13.0,37,0.00,,,0.00,638.000000,,2013-02-13 18:42:00,
2013-02-13 12:52:00,52.0,27.0,-100.00,WSW,242,5.0,13.0,37,0.00,,,0.00,638.000000,,2013-02-13 18:52:00,
2013-02-13 13:01:00,52.0,27.0,-100.00,WSW,242,5.0,13.0,37,0.00,,,0.00,638.000000,,2013-02-13 19:01:00,
2013-02-13 13:11:00,52.0,27.0,-100.00,WSW,242,5.0,13.0,37,0.00,,,0.00,638.000000,,2013-02-13 19:11:00,
2013-02-13 13:42:00,54.0,26.0,-100.00,West,265,6.0,15.0,33,0.00,,,0.00,629.000000,,2013-02-13 19:42:00,
2013-02-13 13:52:00,54.0,26.0,-100.00,West,265,6.0,15.0,33,0.00,,,0.00,629.000000,,2013-02-13 19:52:00,
2013-02-13 14:02:00,54.0,26.0,-100.00,West,265,6.0,15.0,33,0.00,,,0.00,629.000000,,2013-02-13 20:02:00,
2013-02-13 14:11:00,54.0,26.0,-100.00,West,265,6.0,15.0,33,0.00,,,0.00,629.000000,,2013-02-13 20:11:00,
2013-02-13 14:42:00,55.0,25.0,-100.00,West,272,7.0,18.0,31,0.00,,,0.00,564.000000,,2013-02-13 20:42:00,
2013-02-13 14:52:00,55.0,25.0,-100.00,West,272,7.0,18.0,31,0.00,,,0.00,564.000000,,2013-02-13 20:52:00,
2013-02-13 15:01:00,55.0,25.0,-100.00,West,272,7.0,18.0,31,0.00,,,0.00,564.000000,,2013-02-13 21:01:00,
2013-02-13 15:11:00,55.0,25.0,-100.00,West,272,7.0,18.0,31,0.00,,,0.00,564.000000,,2013-02-13 21:11:00,
2013-02-13 15:42:00,56.0,25.0,-100.00,WSW,237,6.0,15.0,30,0.00,,,0.00,419.000000,,2013-02-13 21:42:00,
2013-02-13 15:52:00,56.0,25.0,-100.00,WSW,237,6.0,15.0,30,0.00,,,0.00,419.000000,,2013-02-13 21:52:00,
2013-02-13 16:02:00,56.0,25.0,-100.00,WSW,237,6.0,15.0,30,0.00,,,0.00,419.000000,,2013-02-13 22:02:00,
2013-02-13 16:11:00,56.0,25.0,-100.00,WSW,237,6.0,15.0,30,0.00,,,0.00,419.000000,,2013-02-13 22:11:00,
2013-02-13 16:42:00,54.0,25.0,-100.00,WNW,288,7.0,18.0,32,0.00,,,0.00,277.000000,,2013-02-13 22:42:00,
2013-02-13 16:52:00,54.0,25.0,-100.00,WNW,288,7.0,18.0,32,0.00,,,0.00,277.000000,,2013-02-13 22:52:00,
2013-02-13 17:01:00,54.0,25.0,-100.00,WNW,288,7.0,18.0,32,0.00,,,0.00,277.000000,,2013-02-13 23:01:00,
2013-02-13 17:11:00,54.0,25.0,-100.00,WNW,288,7.0,18.0,32,0.00,,,0.00,277.000000,,2013-02-13 23:11:00,
2013-02-13 17:42:00,51.0,25.0,-100.00,West,280,6.0,14.0,36,0.00,,,0.00,92.000000,,2013-02-13 23:42:00,
2013-02-13 17:52:00,51.0,25.0,-100.00,West,280,6.0,14.0,36,0.00,,,0.00,92.000000,,2013-02-13 23:52:00,
2013-02-13 18:02:00,51.0,25.0,-100.00,West,280,6.0,14.0,36,0.00,,,0.00,92.000000,,2013-02-14 00:02:00,
2013-02-13 18:11:00,51.0,25.0,-100.00,West,280,6.0,14.0,36,0.00,,,0.00,92.000000,,2013-02-14 00:11:00,
2013-02-13 18:42:00,49.0,26.0,-100.00,West,264,4.0,13.0,41,0.00,,,0.00,4.000000,,2013-02-14 00:42:00,
2013-02-13 18:52:00,49.0,26.0,-100.00,West,264,4.0,13.0,41,0.00,,,0.00,4.000000,,2013-02-14 00:52:00,
2013-02-13 19:01:00,49.0,26.0,-100.00,West,264,4.0,13.0,41,0.00,,,0.00,4.000000,,2013-02-14 01:01:00,
2013-02-13 19:11:00,49.0,26.0,-100.00,West,264,4.0,13.0,41,0.00,,,0.00,4.000000,,2013-02-14 01:11:00,
2013-02-13 19:42:00,47.0,28.0,-100.00,WSW,255,2.0,9.0,47,0.00,,,-99.99,0.000000,,2013-02-14 01:42:00,
2013-02-13 19:52:00,47.0,28.0,-100.00,WSW,255,2.0,9.0,47,0.00,,,-99.99,0.000000,,2013-02-14 01:52:00,
2013-02-13 20:01:00,47.0,28.0,-100.00,WSW,255,2.0,9.0,47,0.00,,,-99.99,0.000000,,2013-02-14 02:01:00,
2013-02-13 20:11:00,47.0,28.0,-100.00,WSW,255,2.0,9.0,47,0.00,,,-99.99,0.000000,,2013-02-14 02:11:00,
2013-02-13 21:02:00,43.0,30.0,-100.00,SSW,210,3.0,11.0,61,0.00,,,0.00,0.000000,,2013-02-14 03:02:00,
2013-02-13 21:11:00,43.0,30.0,-100.00,SSW,210,3.0,11.0,61,0.00,,,0.00,0.000000,,2013-02-14 03:11:00,
2013-02-13 21:42:00,43.0,31.0,-100.00,SW,221,3.0,12.0,63,0.00,,,0.00,0.000000,,2013-02-14 03:42:00,
2013-02-13 21:52:00,43.0,31.0,-100.00,SW,221,3.0,12.0,63,0.00,,,0.00,0.000000,,2013-02-14 03:52:00,
2013-02-13 22:01:00,43.0,31.0,-100.00,SW,221,3.0,12.0,63,0.00,,,0.00,0.000000,,2013-02-14 04:01:00,
2013-02-13 22:12:00,43.0,31.0,-100.00,SW,221,3.0,12.0,63,0.00,,,0.00,0.000000,,2013-02-14 04:12:00,
2013-02-13 22:32:00,42.0,32.0,-100.00,SW,218,3.0,10.0,67,0.00,,,-99.99,0.000000,,2013-02-14 04:32:00,
2013-02-13 22:42:00,42.0,32.0,-100.00,SW,218,3.0,10.0,67,0.00,,,-99.99,0.000000,,2013-02-14 04:42:00,
2013-02-13 22:52:00,42.0,32.0,-100.00,SW,218,3.0,10.0,67,0.00,,,-99.99,0.000000,,2013-02-14 04:52:00,
2013-02-13 23:02:00,42.0,32.0,-100.00,SW,218,3.0,10.0,67,0.00,,,-99.99,0.000000,,2013-02-14 05:02:00,
2013-02-13 23:11:00,42.0,32.0,-100.00,SW,218,3.0,10.0,67,0.00,,,-99.99,0.000000,,2013-02-14 05:11:00,
2013-02-13 23:42:00,41.0,32.0,-100.00,SSW,209,3.0,8.0,70,0.00,,,0.00,0.000000,,2013-02-14 05:42:00,
2013-02-13 23:52:00,41.0,32.0,-100.00,SSW,209,3.0,8.0,70,0.00,,,0.00,0.000000,,2013-02-14 05:52:00,